This is the latest recevied weather packets stored in our database for station/object OK1KZE-6. If no packets are shown the sender has not sent any weather packets the latest 10 day(s).
| Time | Temp. | Humidity | Pressure | Rain* | Wind** | Luminosity | Snow |
|---|---|---|---|---|---|---|---|
| 1777733707 | 22.78° C | 25% | 1022.6 hPa | - | - | - | - |
| 1777733408 | 22.78° C | 25% | 1022.7 hPa | - | - | - | - |
| 1777733108 | 22.78° C | 26% | 1022.8 hPa | - | - | - | - |
| 1777732807 | 22.78° C | 25% | 1022.9 hPa | - | - | - | - |
| 1777732507 | 22.78° C | 26% | 1023.1 hPa | - | - | - | - |
| 1777732208 | 22.22° C | 26% | 1023.1 hPa | - | - | - | - |
| 1777731906 | 22.78° C | 27% | 1023 hPa | - | - | - | - |
| 1777731607 | 23.33° C | 26% | 1023.4 hPa | - | - | - | - |
| 1777731307 | 22.78° C | 27% | 1023.1 hPa | - | - | - | - |
| 1777731007 | 22.22° C | 27% | 1023.5 hPa | - | - | - | - |
| 1777730707 | 22.78° C | 27% | 1023.3 hPa | - | - | - | - |
| 1777730408 | 22.78° C | 26% | 1023.4 hPa | - | - | - | - |
| 1777730107 | 22.22° C | 27% | 1023.3 hPa | - | - | - | - |
| 1777729807 | 22.22° C | 26% | 1023.7 hPa | - | - | - | - |
| 1777729508 | 22.78° C | 26% | 1023.8 hPa | - | - | - | - |
| 1777729207 | 22.22° C | 28% | 1023.6 hPa | - | - | - | - |
| 1777728907 | 22.22° C | 29% | 1023.8 hPa | - | - | - | - |
| 1777728608 | 22.22° C | 29% | 1023.5 hPa | - | - | - | - |
| 1777728307 | 21.67° C | 29% | 1023.8 hPa | - | - | - | - |
| 1777728007 | 21.67° C | 29% | 1023.7 hPa | - | - | - | - |
| 1777727708 | 22.22° C | 29% | 1023.8 hPa | - | - | - | - |
| 1777727407 | 22.22° C | 28% | 1024 hPa | - | - | - | - |
| 1777727108 | 21.67° C | 28% | 1023.9 hPa | - | - | - | - |
| 1777726808 | 21.67° C | 32% | 1023.9 hPa | - | - | - | - |
| 1777726508 | 22.78° C | 30% | 1024.1 hPa | - | - | - | - |
* Rain since midnight (hover to see other rain measurements)
** Current wind speed in m/s (hover to see current wind gust speed)